Time,TemperatureF,DewpointF,PressureIn,WindDirection,WindDirectionDegrees,WindSpeedMPH,WindSpeedGustMPH,Humidity,HourlyPrecipIn,Conditions,Clouds,dailyrainin,SolarRadiationWatts/m^2,SoftwareType,DateUTC
2013-03-28 12:02:00,51.0,41.0,-100.00,NW,326,1.0,3.0,69,-99.99,,,-99.99,294.000000,,2013-03-28 19:02:00,
2013-03-28 12:12:00,51.0,41.0,-100.00,NW,326,1.0,3.0,69,-99.99,,,-99.99,294.000000,,2013-03-28 19:12:00,
2013-03-28 12:22:00,51.0,41.0,-100.00,NW,326,1.0,3.0,69,-99.99,,,-99.99,294.000000,,2013-03-28 19:22:00,
2013-03-28 12:52:00,50.0,41.0,-100.00,WNW,294,1.0,4.0,71,0.00,,,0.02,234.000000,,2013-03-28 19:52:00,
2013-03-28 13:02:00,50.0,41.0,-100.00,WNW,294,1.0,4.0,71,0.00,,,0.02,234.000000,,2013-03-28 20:02:00,
2013-03-28 13:12:00,50.0,41.0,-100.00,WNW,294,1.0,4.0,71,0.00,,,0.02,234.000000,,2013-03-28 20:12:00,
2013-03-28 13:22:00,50.0,41.0,-100.00,WNW,294,1.0,4.0,71,0.00,,,0.02,234.000000,,2013-03-28 20:22:00,
2013-03-28 13:53:00,47.0,41.0,-100.00,North,5,1.0,5.0,81,0.03,,,0.05,145.000000,,2013-03-28 20:53:00,
2013-03-28 14:02:00,47.0,41.0,-100.00,North,5,1.0,5.0,81,0.03,,,0.05,145.000000,,2013-03-28 21:02:00,
2013-03-28 14:12:00,47.0,41.0,-100.00,North,5,1.0,5.0,81,0.03,,,0.05,145.000000,,2013-03-28 21:12:00,
2013-03-28 14:22:00,47.0,41.0,-100.00,North,5,1.0,5.0,81,0.03,,,0.05,145.000000,,2013-03-28 21:22:00,
2013-03-28 14:53:00,46.0,42.0,-100.00,WSW,249,2.0,6.0,87,0.04,,,0.09,139.000000,,2013-03-28 21:53:00,
2013-03-28 15:02:00,46.0,42.0,-100.00,WSW,249,2.0,6.0,87,0.04,,,0.09,139.000000,,2013-03-28 22:02:00,
2013-03-28 15:12:00,46.0,42.0,-100.00,WSW,249,2.0,6.0,87,0.04,,,0.09,139.000000,,2013-03-28 22:12:00,
2013-03-28 15:22:00,46.0,42.0,-100.00,WSW,249,2.0,6.0,87,0.04,,,0.09,139.000000,,2013-03-28 22:22:00,
2013-03-28 15:52:00,47.0,42.0,-100.00,West,275,2.0,3.0,84,0.07,,,0.16,140.000000,,2013-03-28 22:52:00,
2013-03-28 16:02:00,47.0,42.0,-100.00,West,275,2.0,3.0,84,0.07,,,0.16,140.000000,,2013-03-28 23:02:00,
2013-03-28 16:12:00,47.0,42.0,-100.00,West,275,2.0,3.0,84,0.07,,,0.16,140.000000,,2013-03-28 23:12:00,
2013-03-28 16:21:00,47.0,42.0,-100.00,West,275,2.0,3.0,84,0.07,,,0.16,140.000000,,2013-03-28 23:21:00,
2013-03-28 16:52:00,47.0,44.0,-100.00,NNW,334,2.0,4.0,89,0.02,,,0.18,196.000000,,2013-03-28 23:52:00,
2013-03-28 17:02:00,47.0,44.0,-100.00,NNW,334,2.0,4.0,89,0.02,,,0.18,196.000000,,2013-03-29 00:02:00,
2013-03-28 17:11:00,47.0,44.0,-100.00,NNW,334,2.0,4.0,89,0.02,,,0.18,196.000000,,2013-03-29 00:11:00,
2013-03-28 17:22:00,47.0,44.0,-100.00,NNW,334,2.0,4.0,89,0.02,,,0.18,196.000000,,2013-03-29 00:22:00,
2013-03-28 17:52:00,47.0,44.0,-100.00,WNW,296,2.0,6.0,89,0.00,,,-99.99,179.000000,,2013-03-29 00:52:00,
2013-03-28 18:02:00,47.0,44.0,-100.00,WNW,296,2.0,6.0,89,0.00,,,-99.99,179.000000,,2013-03-29 01:02:00,
2013-03-28 18:12:00,47.0,44.0,-100.00,WNW,296,2.0,6.0,89,0.00,,,-99.99,179.000000,,2013-03-29 01:12:00,
2013-03-28 18:22:00,47.0,44.0,-100.00,WNW,296,2.0,6.0,89,0.00,,,-99.99,179.000000,,2013-03-29 01:22:00,
2013-03-28 18:52:00,49.0,44.0,-100.00,SE,137,0.0,3.0,84,0.00,,,-99.99,121.000000,,2013-03-29 01:52:00,
2013-03-28 19:02:00,49.0,44.0,-100.00,SE,137,0.0,3.0,84,0.00,,,-99.99,121.000000,,2013-03-29 02:02:00,
2013-03-28 19:12:00,49.0,44.0,-100.00,SE,137,0.0,3.0,84,0.00,,,-99.99,121.000000,,2013-03-29 02:12:00,
2013-03-28 19:21:00,49.0,44.0,-100.00,SE,137,0.0,3.0,84,0.00,,,-99.99,121.000000,,2013-03-29 02:21:00,
2013-03-28 19:53:00,43.0,41.0,-100.00,SSE,149,1.0,3.0,93,0.00,,,-99.99,87.000000,,2013-03-29 02:53:00,
2013-03-28 20:02:00,43.0,41.0,-100.00,SSE,149,1.0,3.0,93,0.00,,,-99.99,87.000000,,2013-03-29 03:02:00,
2013-03-28 20:12:00,43.0,41.0,-100.00,SSE,149,1.0,3.0,93,0.00,,,-99.99,87.000000,,2013-03-29 03:12:00,
2013-03-28 20:21:00,43.0,41.0,-100.00,SSE,149,1.0,3.0,93,0.00,,,-99.99,87.000000,,2013-03-29 03:21:00,
2013-03-28 20:53:00,42.0,40.0,-100.00,NNE,33,0.0,3.0,94,0.00,,,-99.99,3.000000,,2013-03-29 03:53:00,
2013-03-28 21:02:00,42.0,40.0,-100.00,NNE,33,0.0,3.0,94,0.00,,,-99.99,3.000000,,2013-03-29 04:02:00,
2013-03-28 21:12:00,42.0,40.0,-100.00,NNE,33,0.0,3.0,94,0.00,,,-99.99,3.000000,,2013-03-29 04:12:00,
2013-03-28 21:22:00,42.0,40.0,-100.00,NNE,33,0.0,3.0,94,0.00,,,-99.99,3.000000,,2013-03-29 04:22:00,
2013-03-28 21:52:00,41.0,40.0,-100.00,South,179,1.0,2.0,97,0.00,,,-99.99,0.000000,,2013-03-29 04:52:00,
2013-03-28 22:02:00,41.0,40.0,-100.00,South,179,1.0,2.0,97,0.00,,,-99.99,0.000000,,2013-03-29 05:02:00,
2013-03-28 22:12:00,41.0,40.0,-100.00,South,179,1.0,2.0,97,0.00,,,-99.99,0.000000,,2013-03-29 05:12:00,
2013-03-28 22:22:00,41.0,40.0,-100.00,South,179,1.0,2.0,97,0.00,,,-99.99,0.000000,,2013-03-29 05:22:00,
2013-03-28 22:52:00,39.0,38.0,-100.00,South,172,0.0,3.0,96,0.00,,,-99.99,0.000000,,2013-03-29 05:52:00,
2013-03-28 23:02:00,39.0,38.0,-100.00,South,172,0.0,3.0,96,0.00,,,-99.99,0.000000,,2013-03-29 06:02:00,
2013-03-28 23:12:00,39.0,38.0,-100.00,South,172,0.0,3.0,96,0.00,,,-99.99,0.000000,,2013-03-29 06:12:00,
2013-03-28 23:22:00,39.0,38.0,-100.00,South,172,0.0,3.0,96,0.00,,,-99.99,0.000000,,2013-03-29 06:22:00,
2013-03-28 23:52:00,39.0,38.0,-100.00,South,186,0.0,3.0,97,0.00,,,-99.99,0.000000,,2013-03-29 06:52:00,